Weather History for Ogallala, NE

Change the Weather History Date:

Wednesday, December 4, 2013

  Actual Average Record
Temperature  
Mean Temperature 12 °F -  
Max Temperature 19 °F 45 °F 68 °F (2007)
Min Temperature 3 °F 17 °F -7 °F (1978)
Degree Days  
Heating Degree Days 54    
Moisture  
Dew Point 3 °F    
Average Humidity 67    
Maximum Humidity 78    
Minimum Humidity 60    
Precipitation  
Precipitation 0.00 in - - ()
Sea Level Pressure  
Sea Level Pressure 29.90 in    
Wind  
Wind Speed 18 mph (NW)    
Max Wind Speed 29 mph    
Max Gust Speed 33 mph    
Visibility 9 miles    
Events Snow    
Averages and records for this station are not official NWS values.
T = Trace of Precipitation, MM = Missing Value Source: NWS Daily Summary

Daily Weather History Graph

Daily Weather History Graph

Search for Another Location

Airport:

Trip Planner

Search our weather history database for the weather conditions in past years. The results will help you decide how hot, cold, wet, or windy it might be!

Date:

Astronomy

Dec. 04, 2013 Rise Set
Actual Time 6:56 AM MST 4:18 PM MST
Civil Twilight 6:25 AM MST 4:49 PM MST
Nautical Twilight 5:51 AM MST 5:23 PM MST
Astronomical Twilight 5:17 AM MST 5:56 PM MST
Moon 8:25 AM MST (12/4) 6:31 PM MST (12/4)
Length of Visible Light 10h 23m
Length of Day
9h 22m
Waxing Crescent, 5% of the Moon is Illuminated
Dec 4
Waxing Crescent
Dec 9
First Quarter
Dec 17
Full
Dec 25
Last Quarter
Jan 1
New

Hourly Weather History & Observations

Time (MST) Temp. Windchill Dew Point Humidity Pressure Visibility Wind Dir Wind Speed Gust Speed Precip Events Conditions
12:15 AM 19.8 °F 5.9 °F 11.5 °F 70% 29.78 in 10.0 mi North 15.0 mph 20.7 mph N/A   Overcast
12:35 AM 19.2 °F 1.9 °F 10.4 °F 69% 29.76 in 10.0 mi North 24.2 mph 27.6 mph N/A   Overcast
12:55 AM 19.0 °F 2.7 °F 9.9 °F 67% 29.78 in 10.0 mi North 20.7 mph 28.8 mph N/A   Overcast
1:15 AM 18.5 °F 2.0 °F 9.3 °F 67% 29.79 in 10.0 mi NNW 20.7 mph 26.5 mph N/A   Overcast
1:35 AM 18.0 °F 1.7 °F 8.6 °F 67% 29.78 in 10.0 mi North 19.6 mph 24.2 mph N/A   Overcast
1:55 AM 17.6 °F 0.9 °F 8.2 °F 67% 29.77 in 10.0 mi North 20.7 mph 27.6 mph N/A   Overcast
2:15 AM 17.4 °F 2.9 °F 8.1 °F 67% 29.78 in 10.0 mi North 15.0 mph 21.9 mph N/A   Overcast
2:35 AM 17.1 °F 2.0 °F 7.7 °F 67% 29.76 in 10.0 mi North 16.1 mph - N/A   Overcast
2:55 AM 17.1 °F 2.0 °F 7.5 °F 66% 29.76 in 10.0 mi North 16.1 mph 20.7 mph N/A   Overcast
3:15 AM 16.7 °F 1.5 °F 7.7 °F 68% 29.79 in 10.0 mi NNW 16.1 mph - N/A   Overcast
3:35 AM 16.3 °F 0.5 °F 7.0 °F 67% 29.77 in 10.0 mi NNW 17.3 mph 25.3 mph N/A   Overcast
3:55 AM 16.2 °F 1.9 °F 7.3 °F 68% 29.78 in 10.0 mi NNW 13.8 mph 21.9 mph N/A   Overcast
4:15 AM 15.6 °F 0.6 °F 6.1 °F 66% 29.77 in 10.0 mi NNW 15.0 mph 24.2 mph N/A   Overcast
4:35 AM 15.4 °F -1.1 °F 6.3 °F 67% 29.78 in 10.0 mi NNW 18.4 mph 24.2 mph N/A   Overcast
4:55 AM 15.3 °F -0.9 °F 5.7 °F 66% 29.79 in 10.0 mi NNW 17.3 mph 26.5 mph N/A   Overcast
5:15 AM 14.9 °F -3.1 °F 6.1 °F 68% 29.79 in 7.0 mi NNW 21.9 mph 26.5 mph N/A Snow Light Snow
5:35 AM 14.7 °F -0.5 °F 7.3 °F 73% 29.79 in 3.0 mi NNW 15.0 mph 25.3 mph N/A Snow Light Snow
5:55 AM 14.0 °F -1.4 °F 8.4 °F 78% 29.79 in 2.5 mi NNW 15.0 mph 21.9 mph N/A Snow Light Snow
6:15 AM 13.8 °F -2.7 °F 8.2 °F 78% 29.79 in 3.0 mi NNW 17.3 mph - N/A Snow Light Snow
6:35 AM 13.3 °F -5.7 °F 6.3 °F 74% 29.80 in 4.0 mi NNW 23.0 mph 26.5 mph N/A Snow Light Snow
6:55 AM 13.1 °F -2.6 °F 6.4 °F 75% 29.81 in 10.0 mi NNW 15.0 mph 24.2 mph N/A Snow Light Snow
7:15 AM 13.1 °F -4.6 °F 5.7 °F 72% 29.80 in 10.0 mi NNW 19.6 mph 24.2 mph N/A Snow Light Snow
7:35 AM 13.1 °F -4.2 °F 5.0 °F 70% 29.81 in 10.0 mi NNW 18.4 mph 23.0 mph N/A Snow Light Snow
7:55 AM 13.1 °F -3.1 °F 4.8 °F 70% 29.84 in 7.0 mi NNW 16.1 mph 25.3 mph N/A Snow Light Snow
8:15 AM 13.1 °F -4.6 °F 5.7 °F 72% 29.84 in 5.0 mi NNW 19.6 mph - N/A Snow Light Snow
8:35 AM 13.5 °F -2.1 °F 5.7 °F 71% 29.84 in 5.0 mi NW 15.0 mph - N/A Snow Light Snow
8:55 AM 13.5 °F -3.2 °F 5.9 °F 72% 29.84 in 5.0 mi NNW 17.3 mph 26.5 mph N/A Snow Light Snow
9:15 AM 13.6 °F -3.0 °F 5.9 °F 71% 29.84 in 5.0 mi NNW 17.3 mph 23.0 mph N/A Snow Light Snow
9:35 AM 13.8 °F -3.2 °F 5.7 °F 70% 29.85 in 7.0 mi NW 18.4 mph 21.9 mph N/A Snow Light Snow
9:55 AM 13.6 °F -4.4 °F 5.5 °F 70% 29.86 in 10.0 mi NNW 20.7 mph 27.6 mph N/A Snow Light Snow
10:15 AM 13.6 °F -4.8 °F 5.0 °F 68% 29.85 in 10.0 mi NNW 21.9 mph 26.5 mph N/A   Overcast
10:35 AM 14.4 °F -3.4 °F 4.6 °F 65% 29.84 in 10.0 mi NNW 20.7 mph 26.5 mph N/A   Overcast
10:55 AM 15.3 °F -2.6 °F 6.1 °F 67% 29.84 in 10.0 mi NW 21.9 mph - N/A Snow Light Snow
11:15 AM 15.8 °F -4.1 °F 6.1 °F 66% 29.85 in 7.0 mi NNW 28.8 mph 33.4 mph N/A Snow Light Snow
11:35 AM 15.1 °F -1.1 °F 5.4 °F 65% 29.84 in 10.0 mi NNW 17.3 mph 29.9 mph N/A   Overcast
11:55 AM 14.7 °F -3.8 °F 5.7 °F 68% 29.87 in 10.0 mi NW 23.0 mph 29.9 mph N/A Snow Light Snow
12:15 PM 15.4 °F -3.5 °F 4.6 °F 62% 29.85 in 10.0 mi NNW 25.3 mph 29.9 mph N/A   Overcast
12:35 PM 15.1 °F -2.5 °F 4.8 °F 64% 29.84 in 10.0 mi NNW 20.7 mph 28.8 mph N/A   Mostly Cloudy
12:55 PM 15.6 °F -2.6 °F 4.8 °F 62% 29.85 in 10.0 mi NNW 23.0 mph - N/A   Overcast
1:15 PM 15.6 °F -1.3 °F 5.2 °F 63% 29.86 in 10.0 mi NW 19.6 mph 26.5 mph N/A   Overcast
1:35 PM 15.1 °F -3.3 °F 4.3 °F 62% 29.86 in 10.0 mi NNW 23.0 mph 27.6 mph N/A   Overcast
1:55 PM 14.5 °F -2.3 °F 3.2 °F 61% 29.88 in 10.0 mi NW 18.4 mph 28.8 mph N/A   Overcast
2:15 PM 14.0 °F -3.0 °F 2.5 °F 60% 29.89 in 10.0 mi NW 18.4 mph 26.5 mph N/A   Mostly Cloudy
2:35 PM 13.6 °F -5.2 °F 2.1 °F 60% 29.90 in 10.0 mi NW 23.0 mph 29.9 mph N/A   Mostly Cloudy
2:55 PM 13.8 °F -4.9 °F 2.3 °F 60% 29.92 in 10.0 mi NNW 23.0 mph 26.5 mph N/A   Scattered Clouds
3:15 PM 13.3 °F -6.4 °F 2.3 °F 62% 29.91 in 10.0 mi NW 25.3 mph 31.1 mph N/A   Mostly Cloudy
3:35 PM 12.9 °F -6.1 °F 2.3 °F 63% 29.90 in 10.0 mi NNW 23.0 mph 27.6 mph N/A   Mostly Cloudy
3:55 PM 12.6 °F -6.2 °F 2.5 °F 64% 29.93 in 10.0 mi NW 21.9 mph - N/A   Mostly Cloudy
4:15 PM 12.2 °F -3.7 °F 2.1 °F 64% 29.94 in 10.0 mi NW 15.0 mph 26.5 mph N/A   Overcast
4:35 PM 12.0 °F -5.1 °F 2.1 °F 65% 29.96 in 10.0 mi NW 17.3 mph 24.2 mph N/A   Overcast
4:55 PM 12.0 °F -4.5 °F 2.1 °F 65% 29.98 in 10.0 mi NW 16.1 mph 23.0 mph N/A   Overcast
5:15 PM 11.3 °F -4.3 °F 1.6 °F 65% 29.98 in 10.0 mi NW 13.8 mph 23.0 mph N/A   Overcast
5:35 PM 11.1 °F -6.2 °F 1.2 °F 64% 30.00 in 10.0 mi NW 17.3 mph 21.9 mph N/A   Mostly Cloudy
5:55 PM 11.1 °F -6.2 °F 1.0 °F 64% 30.01 in 10.0 mi NW 17.3 mph 21.9 mph N/A   Scattered Clouds
6:15 PM 10.4 °F -6.6 °F 0.5 °F 64% 30.01 in 10.0 mi NW 16.1 mph - N/A   Mostly Cloudy
6:35 PM 9.9 °F -7.9 °F -0.0 °F 64% 30.03 in 10.0 mi NW 17.3 mph - N/A   Scattered Clouds
6:55 PM 9.1 °F -8.8 °F -0.6 °F 65% 30.04 in 10.0 mi NW 17.3 mph 23.0 mph N/A   Scattered Clouds
7:15 PM 8.6 °F -9.5 °F -1.3 °F 64% 30.05 in 10.0 mi NW 17.3 mph - N/A   Scattered Clouds
7:35 PM 8.2 °F -8.2 °F -1.5 °F 65% 30.06 in 10.0 mi NW 13.8 mph 20.7 mph N/A   Scattered Clouds
7:55 PM 8.1 °F -9.6 °F -1.8 °F 64% 30.07 in 10.0 mi NW 16.1 mph 23.0 mph N/A   Clear
8:15 PM 7.5 °F -10.3 °F -2.2 °F 65% 30.07 in 10.0 mi NW 16.1 mph 20.7 mph N/A   Clear
8:35 PM 6.4 °F -10.5 °F -2.7 °F 66% 30.08 in 10.0 mi NW 13.8 mph 19.6 mph N/A   Clear
8:55 PM 5.9 °F -9.7 °F -3.1 °F 67% 30.09 in 10.0 mi WNW 11.5 mph - N/A   Clear
9:15 PM 5.5 °F -8.4 °F -3.3 °F 67% 30.09 in 10.0 mi WNW 9.2 mph - N/A   Clear
9:35 PM 5.5 °F -10.9 °F -3.8 °F 65% 30.10 in 10.0 mi WNW 12.7 mph 19.6 mph N/A   Clear
9:55 PM 5.5 °F -10.2 °F -4.0 °F 65% 30.12 in 10.0 mi WNW 11.5 mph 16.1 mph N/A   Clear
10:15 PM 5.0 °F -10.8 °F -4.0 °F 66% 30.12 in 10.0 mi WNW 11.5 mph - N/A   Clear
10:35 PM 5.0 °F -13.0 °F -4.5 °F 65% 30.12 in 10.0 mi NW 15.0 mph 19.6 mph N/A   Clear
10:55 PM 5.0 °F -14.2 °F -4.9 °F 64% 30.13 in 10.0 mi NW 17.3 mph 23.0 mph N/A   Clear
11:15 PM 4.5 °F -8.7 °F -5.3 °F 64% 30.15 in 10.0 mi WNW 8.1 mph - N/A   Clear
11:35 PM 4.1 °F -9.2 °F -5.3 °F 65% 30.15 in 10.0 mi West 8.1 mph - N/A   Clear
11:55 PM 3.9 °F -10.4 °F -5.8 °F 64% 30.14 in 10.0 mi WNW 9.2 mph 17.3 mph N/A   Clear